Poughkeepsie, NY

2:37 PM EST on November 13, 2019 (GMT -0500)
Dutchess County

Weather History for KPOU - October, 2019

Change the Weather History Date:

Wednesday, October 23, 2019

  Actual Average Record
Temperature  
Mean Temperature 53 °F 48 °F  
Max Temperature 66 °F 61 °F 82 °F (1947)
Min Temperature 39 °F 37 °F 22 °F (1982)
Degree Days  
Heating Degree Days 12 16  
Month to date heating degree days 250 295  
Since 1 July heating degree days 317 435  
Cooling Degree Days 0 0  
Month to date cooling degree days 12 0  
Year to date cooling degree days 807 668  
Growing Degree Days 3 (Base 50)    
Moisture  
Dew Point 47 °F    
Average Humidity 64    
Maximum Humidity 100    
Minimum Humidity 28    
Precipitation  
Precipitation 0.11 in 0.15 in 2.57 in (1990)
Month to date precipitation 3.72 3.41  
Year to date precipitation 31.45 38.47  
Sea Level Pressure  
Sea Level Pressure 29.86 in    
Wind  
Wind Speed 5 mph (West)    
Max Wind Speed 21 mph    
Max Gust Speed 27 mph    
Visibility 6 miles    
Events Fog , Rain    
T = Trace of Precipitation, MM = Missing Value Source: NWS Daily Summary

Daily Weather History Graph

Daily Weather History Graph

Search for Another Location

Airport or City:

Astronomy

Oct. 23, 2019 Rise Set
Actual Time 7:16 AM EDT 6:02 PM EDT
Civil Twilight 6:48 AM EDT 6:30 PM EDT
Nautical Twilight 6:15 AM EDT 7:03 PM EDT
Astronomical Twilight 5:43 AM EDT 7:35 PM EDT
Moon 1:26 AM EDT (10/23) 3:56 PM EDT (10/23)
Length of Visible Light 11h 42m
Length of Day
10h 46m
Waning Crescent, 27% of the Moon is Illuminated
Oct 23
Waning Crescent
Oct 27
New
Nov 4
First Quarter
Nov 12
Full
Nov 19
Last Quarter

Hourly Weather History & Observations

Time (EDT) Temp. Windchill Dew Point Humidity Pressure Visibility Wind Dir Wind Speed Gust Speed Precip Events Conditions
12:46 AM 57.9 °F - 55.9 °F 93% 29.78 in 3.0 mi West 8.1 mph - 0.01 in Rain Light Rain
12:53 AM 57.9 °F - 55.9 °F 93% 29.77 in 2.0 mi West 4.6 mph - 0.03 in Rain Rain
1:26 AM 57.0 °F - 55.0 °F 93% 29.78 in 2.5 mi NW 6.9 mph - 0.07 in Rain Light Rain
1:53 AM 57.0 °F - 55.0 °F 93% 29.78 in 3.0 mi NNW 3.5 mph - 0.09 in Rain Light Rain
2:03 AM 57.0 °F - 55.0 °F 93% 29.79 in 2.5 mi Calm Calm - 0.01 in Rain Light Rain
2:32 AM 57.0 °F - 55.0 °F 93% 29.79 in 2.5 mi Calm Calm - 0.04 in Rain Light Rain
2:40 AM 57.0 °F - 55.0 °F 93% 29.79 in 7.0 mi Calm Calm - 0.04 in Rain Light Rain
2:53 AM 57.0 °F - 55.0 °F 93% 29.78 in 10.0 mi Calm Calm - 0.04 in   Overcast
3:09 AM 57.0 °F - 55.0 °F 93% 29.79 in 10.0 mi NNW 3.5 mph - N/A   Overcast
3:17 AM 57.0 °F - 55.0 °F 93% 29.79 in 8.0 mi NNW 3.5 mph - N/A   Overcast
3:39 AM 57.0 °F - 55.0 °F 93% 29.78 in 10.0 mi Calm Calm - N/A   Overcast
3:53 AM 55.9 °F - 55.0 °F 97% 29.76 in 10.0 mi NNE 3.5 mph - N/A   Overcast
4:36 AM 55.9 °F - 54.0 °F 93% 29.78 in 10.0 mi WNW 3.5 mph - N/A   Overcast
4:53 AM 55.0 °F - 54.0 °F 96% 29.78 in 10.0 mi Calm Calm - N/A   Overcast
5:28 AM 55.0 °F - 53.1 °F 93% 29.80 in 10.0 mi WNW 3.5 mph - N/A   Overcast
5:44 AM 54.0 °F - 52.0 °F 93% 29.80 in 2.5 mi Calm Calm - N/A   Overcast
5:48 AM 53.6 °F - 51.8 °F 94% 29.80 in 0.8 mi Calm Calm - N/A   Overcast
5:53 AM 54.0 °F - 52.0 °F 93% 29.79 in 0.8 mi Calm Calm - N/A   Overcast
6:01 AM 53.1 °F - 52.0 °F 96% 29.80 in 1.2 mi Calm Calm - N/A   Overcast
6:07 AM 52.0 °F - 51.1 °F 97% 29.81 in 0.2 mi Calm Calm - N/A Fog Fog
6:19 AM 50.0 °F - 48.9 °F 96% 29.81 in 0.2 mi Calm Calm - N/A Fog Fog
6:38 AM 50.0 °F - 48.9 °F 96% 29.82 in 0.5 mi Calm Calm - N/A Fog Fog
6:53 AM 51.1 °F - 48.9 °F 92% 29.81 in 0.5 mi Calm Calm - N/A Fog Fog
7:01 AM 50.0 °F - 48.9 °F 96% 29.83 in 0.5 mi Calm Calm - N/A Fog Fog
7:08 AM 50.0 °F - 48.0 °F 93% 29.83 in 0.2 mi Calm Calm - N/A Fog Fog
7:22 AM 48.9 °F - 48.0 °F 97% 29.84 in 0.5 mi Calm Calm - N/A Fog Fog
7:25 AM 48.9 °F - 46.9 °F 93% 29.84 in 0.2 mi Calm Calm - N/A Fog Fog
7:35 AM 48.0 °F - 46.9 °F 96% 29.84 in 0.2 mi Calm Calm - N/A Fog Fog
7:46 AM 48.9 °F - 48.0 °F 97% 29.85 in 1.2 mi Calm Calm - N/A   Mostly Cloudy
7:53 AM 50.0 °F - 48.9 °F 96% 29.84 in 10.0 mi Calm Calm - N/A   Mostly Cloudy
8:53 AM 54.0 °F - 52.0 °F 93% 29.87 in 10.0 mi SW 3.5 mph - N/A   Clear
9:53 AM 57.9 °F - 52.0 °F 81% 29.89 in 10.0 mi SSW 6.9 mph - N/A   Clear
10:53 AM 62.1 °F - 42.1 °F 48% 29.89 in 10.0 mi West 13.8 mph - N/A   Clear
11:53 AM 63.0 °F - 42.1 °F 46% 29.90 in 10.0 mi West 13.8 mph 17.3 mph N/A   Partly Cloudy
12:53 PM 61.0 °F - 35.1 °F 38% 29.90 in 10.0 mi West 13.8 mph 20.7 mph N/A   Partly Cloudy
1:53 PM 64.9 °F - 37.0 °F 36% 29.90 in 10.0 mi West 8.1 mph 18.4 mph N/A   Mostly Cloudy
2:53 PM 64.9 °F - 35.1 °F 33% 29.91 in 10.0 mi West 12.7 mph - N/A   Clear
3:53 PM 64.9 °F - 33.1 °F 31% 29.92 in 10.0 mi WSW 13.8 mph - N/A   Clear
4:53 PM 64.0 °F - 30.9 °F 29% 29.94 in 10.0 mi West 13.8 mph - N/A   Clear
5:53 PM 60.1 °F - 33.1 °F 36% 29.98 in 10.0 mi WSW 5.8 mph - N/A   Clear
6:53 PM 55.0 °F - 36.0 °F 49% 30.01 in 10.0 mi WSW 4.6 mph - N/A   Clear
7:53 PM 50.0 °F - 37.9 °F 63% 30.05 in 10.0 mi WSW 5.8 mph - N/A   Clear
8:53 PM 46.0 °F - 37.9 °F 73% 30.08 in 10.0 mi Calm Calm - N/A   Clear
9:53 PM 43.0 °F - 37.9 °F 82% 30.11 in 10.0 mi Calm Calm - N/A   Clear
10:53 PM 42.1 °F 40.2 °F 37.0 °F 82% 30.12 in 10.0 mi East 3.5 mph - N/A   Clear
11:53 PM 39.9 °F 37.8 °F 36.0 °F 86% 30.14 in 10.0 mi ESE 3.5 mph - N/A   Clear